DW7764 Weather Reports


Display with metric or nautical units.
time (UTC)temp
F
wind
direction
speed
MPH
gust
MPH
rain 1hr
in
rain 24hr
in
rain mn
in
humidity
%
barometer
mb
20260503034533 60 32 0.0 0.0 0.00 0.00 0.00 90 1021.8
20260503033041 60 33 0.0 2.0 0.00 0.00 0.00 90 1021.8
20260503031531 60 113 0.0 1.0 0.00 0.00 0.00 89 1021.8
20260503030034 60 113 0.0 1.0 0.00 0.00 0.00 89 1022.0
20260503024534 60 103 0.0 0.0 0.00 0.00 0.00 89 1022.2
20260503023028 60 103 0.0 1.0 0.00 0.00 0.00 89 1022.1
20260503021527 60 148 0.0 0.0 0.00 0.00 0.00 89 1022.1
20260503020026 60 148 0.0 1.0 0.00 0.00 0.00 90 1022.3
20260503014525 60 148 0.0 3.0 0.00 0.00 0.00 89 1022.5
20260503013024 60 126 0.0 1.0 0.00 0.00 0.00 88 1022.3
20260503011530 60 117 0.0 2.0 0.00 0.00 0.00 88 1022.4
20260503010020 60 133 0.0 0.0 0.00 0.00 0.00 88 1022.8
20260503004519 60 133 0.0 0.0 0.00 0.00 0.00 88 1023.0
20260503003017 60 133 0.0 1.0 0.00 0.00 0.00 88 1023.2
20260503001515 60 132 0.0 3.0 0.00 0.00 0.00 88 1023.5
20260503000013 60 131 0.0 0.0 0.00 0.00 0.00 88 1023.5
20260502234528 60 131 0.0 2.0 0.00 0.00 0.00 88 1023.6
20260502233011 61 131 0.0 1.0 0.00 0.00 0.00 88 1023.8
20260502231511 61 126 0.0 3.0 0.00 0.00 0.00 87 1023.9
20260502230008 61 121 0.0 4.0 0.00 0.00 0.00 87 1023.9
20260502224511 61 150 0.0 0.0 0.00 0.00 0.00 87 1023.9
20260502223007 61 309 0.0 1.0 0.00 0.00 0.00 87 1023.9
20260502221505 61 309 0.0 1.0 0.00 0.00 0.00 87 1024.0
20260502220008 61 309 0.0 1.0 0.00 0.00 0.00 87 1024.3
20260502214502 61 309 0.0 0.0 0.00 0.00 0.00 87 1024.2
20260502213001 61 309 0.0 1.0 0.00 0.00 0.00 86 1024.5
20260502211501 61 309 0.0 1.0 0.00 0.00 0.00 87 1024.6
20260502210001 61 309 0.0 2.0 0.00 0.00 0.00 87 1024.6
20260502204610 61 128 0.0 3.0 0.00 0.00 0.00 87 1024.5
20260502203114 61 120 0.0 0.0 0.00 0.00 0.00 87 1024.5
20260502201559 60 155 0.0 1.0 0.00 0.00 0.00 88 1024.5
20260502200059 60 221 0.0 1.0 0.00 0.00 0.00 88 1024.2
20260502194559 60 135 0.0 1.0 0.00 0.00 0.00 87 1024.1
20260502193058 60 131 0.0 0.0 0.00 0.00 0.00 87 1024.1
20260502191611 61 129 0.0 2.0 0.00 0.00 0.00 86 1024.0
20260502190107 61 129 0.0 1.0 0.00 0.00 0.00 86 1024.1
20260502184555 61 126 0.0 3.0 0.00 0.00 0.00 85 1024.0
20260502183100 61 109 0.0 4.0 0.00 0.00 0.00 83 1024.2
20260502181557 62 160 1.0 4.0 0.00 0.00 0.00 81 1024.1
20260502180110 62 93 1.0 4.0 0.00 0.00 0.00 79 1024.0
20260502163105 64 130 0.0 7.0 0.00 0.00 0.00 76 1024.8
20260502161545 63 103 2.0 6.0 0.00 0.00 0.00 74 1024.9
20260502151541 65 146 2.0 6.0 0.00 0.00 0.00 68 1025.4
20260502123025 66 114 2.0 8.0 0.00 0.00 0.00 67 1026.8
20260502121524 67 110 3.0 8.0 0.00 0.00 0.00 63 1026.9
20260502114522 68 158 4.0 9.0 0.00 0.00 0.00 61 1026.8
20260502113020 68 113 0.0 4.0 0.00 0.00 0.00 59 1027.0
20260502111517 68 113 1.0 5.0 0.00 0.00 0.00 61 1027.0
20260502110015 67 29 1.0 4.0 0.00 0.00 0.00 65 1027.1
20260502104511 66 128 1.0 4.0 0.00 0.00 0.00 67 1027.4
20260502103010 65 152 0.0 2.0 0.00 0.00 0.00 66 1027.8
20260502101509 65 153 0.0 3.0 0.00 0.00 0.00 69 1027.8
20260502070054 61 151 0.0 2.0 0.00 0.00 0.00 81 1028.1
20260502064548 61 150 0.0 0.0 0.00 0.00 0.00 82 1028.2
20260502063046 60 150 0.0 1.0 0.00 0.00 0.00 83 1028.0
20260502061545 60 150 0.0 0.0 0.00 0.00 0.00 84 1027.9
20260502060046 60 150 0.0 2.0 0.00 0.00 0.00 83 1028.0
20260502054542 60 150 0.0 0.0 0.00 0.00 0.00 84 1027.8
20260502053044 60 151 0.0 1.0 0.00 0.00 0.00 85 1027.8
20260502051542 60 150 0.0 0.0 0.00 0.00 0.00 86 1027.7
20260502050046 60 150 0.0 0.0 0.00 0.00 0.00 86 1027.7
20260502044549 60 150 0.0 0.0 0.00 0.00 0.00 86 1027.7
20260502043047 60 150 0.0 0.0 0.00 0.00 0.00 86 1027.7
20260502041546 60 150 0.0 1.0 0.00 0.00 0.00 86 1027.6
20260502040039 60 150 0.0 1.0 0.00 0.00 0.00 85 1027.6